Meadville, PA

3:00 AM EST on February 18, 2018 (GMT -0500)
Port Meadville

Weather History for KGKJ - September, 2013

Change the Weather History Date:

Sunday, September 15, 2013

  Actual Average Record
Temperature  
Mean Temperature 55 °F -  
Max Temperature 66 °F 72 °F 90 °F (1952)
Min Temperature 46 °F 50 °F 34 °F (1975)
Degree Days  
Heating Degree Days 10    
Growing Degree Days 5 (Base 50)    
Moisture  
Dew Point 46 °F    
Average Humidity 71    
Maximum Humidity 90    
Minimum Humidity 50    
Precipitation  
Precipitation 0.01 in - - ()
Sea Level Pressure  
Sea Level Pressure 30.14 in    
Wind  
Wind Speed 2 mph (SSW)    
Max Wind Speed 8 mph    
Max Gust Speed -    
Visibility 10 miles    
Events Rain    
Averages and records for this station are not official NWS values.
T = Trace of Precipitation, MM = Missing Value Source: NWS Daily Summary

Daily Weather History Graph

Daily Weather History Graph

Search for Another Location

Airport or City:

Trip Planner

Search our weather history database for the weather conditions in past years. The results will help you decide how hot, cold, wet, or windy it might be!

Date:

Astronomy

Sep. 15, 2013 Rise Set
Actual Time 7:01 AM EDT 7:29 PM EDT
Civil Twilight 6:33 AM EDT 7:57 PM EDT
Nautical Twilight 6:00 AM EDT 8:30 PM EDT
Astronomical Twilight 5:26 AM EDT 9:04 PM EDT
Moon 4:58 PM EDT (9/15) 2:34 AM EDT (9/15)
Length of Visible Light 13h 24m
Length of Day
12h 28m
Waxing Gibbous, 82% of the Moon is Illuminated
Sep 15
Waxing Gibbous
Sep 19
Full
Sep 26
Last Quarter
Oct 4
New
Oct 11
First Quarter

Hourly Weather History & Observations

Time (EDT) Temp. Dew Point Humidity Pressure Visibility Wind Dir Wind Speed Gust Speed Precip Events Conditions
12:53 AM 48.0 °F 43.0 °F 83% 30.16 in 10.0 mi SE 3.5 mph - N/A   Clear
1:53 AM 48.9 °F 43.0 °F 80% 30.16 in 10.0 mi Calm Calm - N/A   Clear
2:53 AM 48.0 °F 42.1 °F 80% 30.15 in 10.0 mi Calm Calm - N/A   Clear
3:53 AM 46.9 °F 41.0 °F 80% 30.15 in 10.0 mi Calm Calm - N/A   Clear
4:53 AM 46.9 °F 41.0 °F 80% 30.16 in 10.0 mi Calm Calm - N/A   Clear
5:53 AM 46.9 °F 41.0 °F 80% 30.16 in 10.0 mi Calm Calm - N/A   Clear
6:53 AM 46.9 °F 41.0 °F 80% 30.18 in 10.0 mi Calm Calm - N/A   Clear
7:53 AM 48.9 °F 42.1 °F 77% 30.20 in 10.0 mi Calm Calm - N/A   Clear
8:53 AM 51.1 °F 43.0 °F 74% 30.19 in 10.0 mi South 4.6 mph - N/A   Clear
9:53 AM 54.0 °F 46.0 °F 75% 30.21 in 10.0 mi South 4.6 mph - N/A   Clear
10:53 AM 57.9 °F 48.0 °F 70% 30.19 in 10.0 mi South 3.5 mph - N/A   Clear
11:53 AM 60.1 °F 46.0 °F 60% 30.17 in 10.0 mi Variable 5.8 mph - N/A   Clear
12:53 PM 62.1 °F 46.0 °F 56% 30.15 in 10.0 mi Variable 4.6 mph - N/A   Clear
1:53 PM 63.0 °F 48.0 °F 58% 30.13 in 10.0 mi SSW 6.9 mph - N/A   Clear
2:53 PM 64.0 °F 46.9 °F 54% 30.13 in 10.0 mi SSW 5.8 mph - N/A   Clear
3:53 PM 64.9 °F 46.0 °F 50% 30.11 in 10.0 mi South 8.1 mph - N/A   Clear
4:53 PM 63.0 °F 46.9 °F 56% 30.11 in 10.0 mi SSW 6.9 mph - N/A   Clear
5:53 PM 63.0 °F 48.0 °F 58% 30.10 in 10.0 mi SW 3.5 mph - N/A   Clear
6:53 PM 62.1 °F 50.0 °F 65% 30.10 in 10.0 mi Calm Calm - N/A   Scattered Clouds
7:53 PM 60.1 °F 50.0 °F 69% 30.09 in 10.0 mi Calm Calm - 0.00 in   Overcast
8:53 PM 57.9 °F 52.0 °F 81% 30.13 in 10.0 mi Calm Calm - N/A   Overcast
9:53 PM 59.0 °F 51.1 °F 75% 30.12 in 10.0 mi Calm Calm - 0.00 in Rain Light Rain
10:53 PM 57.0 °F 51.1 °F 81% 30.11 in 10.0 mi Calm Calm - 0.01 in Rain Light Rain
11:53 PM 55.9 °F 53.1 °F 90% 30.11 in 10.0 mi Calm Calm - 0.00 in   Overcast